www.pogodaiklimat.ru

ПОГОДА в Юг Хейвен, MI

  • Прогноз погоды в Юг Хейвен
  • Монитор погоды в Юг Хейвен
  • Климат в Юг Хейвен

АРХИВ ПОГОДЫ в Юг Хейвен

Время (UTC), дата Ветер
(напр.,м/с)
 
Видим.   Явления Облачность Т
(С)
Тd
(С)
f
(%)
Тe
(С)
Тes
(С)
Комфортность

P
(гПа)

Po
(гПа)
Тmin
(С)
Tmax
(С)
R
(мм)
SD
(см)
05:36 26.03   16 км    ясно  -3.7  -10.0  62  -4  -4      1004.1         
05:56 26.03   16 км    ясно  -3.8  -8.6  69  -5  -5      1004.1         
06:15 26.03   16 км    ясно  -4.0  -8.5  71  -5  -5      1004.1         
06:35 26.03   16 км    ясно  -4.4  -8.4  74  -5  -5      1004.5         
06:56 26.03   16 км    ясно  -4.0  -9.0  68  -5  -5      1004.5         
07:16 26.03   16 км    ясно  -4.7  -10.0  66  -5  -5      1004.8         
07:35 26.03   16 км    ясно  -4.5  -10.1  65  -5  -5      1004.8         
07:55 26.03   16 км    ясно  -3.8  -11.9  53  -4  -4      1004.8         
08:16 26.03 СВ  16 км    ясно  -3.5  -12.2  51  -6  -6      1004.8         
08:36 26.03   16 км    ясно  -3.3  -12.7  48  -4  -4      1005.1         
08:56 26.03   16 км    ясно  -3.9  -12.3  52  -4  -4      1005.5         
09:15 26.03   16 км    ясно  -3.7  -12.5  50  -4  -4      1005.5         
09:36 26.03   16 км    ясно  -4.9  -10.7  64  -6  -6      1005.5         
09:56 26.03   16 км    ясно  -5.3  -11.1  64  -6  -6      1005.8         
10:15 26.03   16 км    ясно  -4.9  -10.8  63  -5  -5      1005.8         
10:35 26.03   16 км    ясно  -5.1  -11.5  61  -6  -6      1005.8         
10:55 26.03   16 км    ясно  -4.7  -11.7  58  -5  -5      1005.8  -5.3  -1.1     
11:16 26.03   16 км    ясно  -3.8  -12.4  51  -4  -4      1006.1         
11:35 26.03   16 км    ясно  -2.0  -13.0  43  -2  -2      1006.4         
11:55 26.03 В  16 км    ясно  -1.1  -12.6  41  -3  -3      1006.8         
12:16 26.03 В  16 км    ясно  -0.3  -13.2  37  -2  -1      1006.8         
12:35 26.03 В  16 км    ясно  +0.1  -13.2  36  -3  -2      1007.1         
12:55 26.03 В  16 км    ясно  +0.9  -16.3  26  -3  -2      1007.1         
13:15 26.03 В  16 км    ясно  +1.6  -16.9  24  -2  +2      1007.1         
13:36 26.03 В  16 км    ясно  +2.0  -18.3  21  -1  +2      1007.4         
13:55 26.03 В  16 км    ясно  +2.5  -20.0  17  0  +4      1007.4         
14:15 26.03 В  16 км    ясно  +3.3  -19.6  17  +1  +8      1007.4         
14:36 26.03   16 км    ясно  +4.0  -20.6  15  +4  +15  опасность
простуды 
  1007.8         
14:56 26.03 В  16 км    ясно  +4.4  -20.3  15  +2  +8      1007.8         
15:15 26.03 СВ  16 км    ясно  +5.0  -19.5  15  +4  +16  опасность
простуды 
  1007.8         
15:35 26.03 ЮВ  16 км    ясно  +5.2  -19.2  15  +4  +16  опасность
простуды 
  1007.4         
15:56 26.03 СВ  16 км    ясно  +5.9  -17.8  16  +3  +9      1007.4         
16:15 26.03 СВ  16 км    ясно  +5.9  -18.4  15  +5  +19  опасность
простуды 
  1007.4         
16:35 26.03 З  16 км    ясно  +5.6  -12.7  25  +3  +11  опасность
простуды 
  1007.4         
16:56 26.03 СЗ  16 км    ясно  +5.7  -13.4  24  +3  +11  опасность
простуды 
  1007.1  -4.7  +6.1     
17:16 26.03 З  16 км    ясно  +5.3  -13.8  24  +2  +11  опасность
простуды 
  1007.1         
17:35 26.03 З  16 км    ясно  +5.5  -12.6  26  +2  +9      1007.1         
17:55 26.03 З  16 км    ясно  +5.3  -12.4  27  +2  +11  опасность
простуды 
  1006.8         
18:16 26.03 З  16 км    ясно  +5.1  -12.8  26  +2  +10  опасность
простуды 
  1006.4         
18:35 26.03 СЗ  16 км    ясно  +5.2  -13.1  25  +2  +11  опасность
простуды 
  1006.1         
18:55 26.03 СЗ  16 км    ясно  +5.0  -12.7  26  +2  +8      1005.8         
19:16 26.03 З  16 км    ясно  +5.3  -10.8  30  +2  +7      1005.8         
19:35 26.03 СЗ  16 км    ясно  +5.1  -11.3  29  +2  +8      1005.8         
19:55 26.03 СЗ  16 км    ясно  +4.9  -11.3  30  +2  +9      1005.8         
20:16 26.03 СЗ  16 км    ясно  +5.0  -11.1  30  +2  +5      1005.8         
20:36 26.03 СЗ  16 км    ясно  +4.8  -11.0  31  +1  +5      1005.5         
20:55 26.03 СЗ  16 км    ясно  +4.3  -9.5  36  +1  +6      1005.5         
21:15 26.03 СЗ  16 км    ясно  +4.2  -10.4  34  +1  +3      1005.5         

 

Местоположение метеостанции South Haven Area Regional Airport: широта 42.3508 долгота -86.2561 высота над уровнем моря 203 м.

В архиве по умолчанию представлена погода в Юг Хейвен за последние 1-2 суток. Обновление информации о фактической погоде в базе происходит ежечасно! Архивные данные за месяц целиком и за предыдущие месяцы Вы можете получить, выбрав интересующий диапазон дат из раскрывающегося списка и нажав кнопку "Ввод!".

Внимание! Архив погоды МЕТАР в базе сайта хранится не более 60 дней. Нет смысла пытаться выбрать более раннюю дату.

Внимание! Время в таблицах - всемирное. Для получения местного времени необходимо прибавить поправку, которая в Юг Хейвен равна -5 ч.

Ветер - указаны скорость ветра в м/с и направление, откуда дует ветер: С - северный, СВ - северо-восточный, В - восточный, ЮВ - юго-восточный, Ю - южный, ЮЗ - юго-западный, З - западный, СЗ - северо-западный.
Видимость - горизонтальная дальность видимости в метрах или километрах. При видимости от 1 до 10 км при отсутствии осадков обычно наблюдается дымка, при ухудшении видимости до 1 км и менее - туман. В сухую погоду видимость может ухудшаться дымом, пылью или мглою.
Атмосферные явления - указаны явления, наблюдавшиеся в указанный момент времени.
Облачность - указаны через наклонную черту верхняя и нижняя облачность в баллах и высота нижней границы облаков в метрах. Внимание: облачность, как и прочие метеорологические величины в США измеряются автоматическими метеостанциями. Указанные значения в баллах носят условный характер и показывают процент времени, в течение которого, в среднем, лазерный луч высотомера отражался от облаков обратно.
T - Температура воздуха - температура, измеренная на высоте 2 м над землей.
Td - Температура точки росы - температура, при понижении до которой содержащийся в воздухе водяной пар достигнет насыщения.
f - Относительная влажность воздуха - влажноcть воздуха, измеренная на высоте 2 м над землей.
Te - Эффективная температура - температура, которую ощущает одетый по сезону человек в тени. Характеристика душности погоды. При расчете учитывается влияние влажности воздуха и скорости ветра на теплоощущения человека.
Tes - Эффективная температура на солнце - температура, которую ощущает человек, с поправкой на солнечный нагрев. Характеристика знойности погоды. Зависит от высоты солнца над горизонтом, облачности и скорости ветра. Ночью, в пасмурную погоду, а также при ветре 12 м/с и более поправка равна нулю.
P - Атмосферное давление - приведенное к уровню моря атмосферное давление.
Po - Атмосферное давление - измеренное на уровне метеостанции атмосферное давление.
Tmin - Минимальная температура - минимум температуры воздуха на высоте 2 м над землей.
Tmax - Максимальная температура - максимум температуры воздуха на высоте 2 м над землей.
R - Количество осадков - Количество выпавших осадков за 3 или 6 часов, мм.
SD - Снежный покров - Высота снежного покрова, см.